Flag for China Weather past 2 weeks in Hohhot, Inner Mongolia, China

Now
86 °F

Passing clouds.


Feels Like: 84 °F
Forecast: 58 / 89 °F
Wind: 8 mph from Southwest

Location: Hohhot Airport

Current Time: Jul 7, 2015 at 3:43:47 PM

Latest Report: Jul 7, 2015 at 3:00 PM


Visibility: N/A

Pressure: 29.86 "Hg (26.52 "Hg at 1053m altitude)

Humidity: 29%

Dew point: 50 °F

Location of HohhotLocation

Historic Weather in Hohhot — Graph

°F

Hohhot temperature yesterday

Maximum temperature yesterday: 84 °F (at 3:00 PM)
Minimum temperature yesterday: 63 °F (at 4:00 AM)
Average temperature yesterday: 74 °F

Past Weeks' High & Low Weather Summary

 TemperatureHumidityPressure
High91 °F (Jun 27, 4:00 PM)100% (Jun 24, 6:00 AM)29.95 "Hg (Jun 24, 6:00 AM)
Low55 °F (Jul 2, 5:00 AM)16% (Jun 30, 6:00 PM)29.56 "Hg (Jun 26, 4:00 PM)
Average72 °F54%29.78 "Hg
* Reported Jun 22 2:00 PM — Jul 7 2:00 PM, Hohhot, Weather by CustomWeather, © 2015

Note: Actual official high and low records may vary slightly from our data, if they occured in-between our weather recording intervals... More about our weather records

Advertising

Hohhot weather history for previous 24 hours

 ConditionsComfort  
Time TempWeatherWind HumidityBarometerVisibility
2:00 PM
Tue, Jul 7
84 °FPassing clouds.8 mph31%29.89 "HgN/A
1:00 PM84 °FPassing clouds.8 mph33%29.89 "HgN/A
12:00 PM82 °FPassing clouds.8 mph37%29.92 "HgN/A
11:00 AM79 °FClear.3 mph45%29.92 "Hg5 mi
10:00 AM77 °FClear.3 mph47%29.92 "Hg5 mi
9:00 AM73 °FPassing clouds.6 mph53%29.95 "HgN/A
8:00 AM72 °FPassing clouds.3 mph57%29.95 "HgN/A
7:00 AM68 °FSunny.3 mph60%29.92 "Hg10 mi
6:00 AM64 °FClear.3 mph73%29.92 "Hg4 mi
5:00 AM63 °FClear.6 mph73%29.89 "Hg10 mi
4:00 AM63 °FClear.6 mph73%29.89 "Hg10 mi
3:00 AM64 °FClear.3 mph73%29.89 "Hg10 mi
2:00 AM66 °FClear.1 mph68%29.89 "Hg10 mi
1:00 AM68 °FClear.3 mph60%29.89 "Hg10 mi
12:00 AM68 °FPassing clouds.3 mph60%29.89 "HgN/A
11:00 PM
Mon, Jul 6
72 °FPassing clouds.1 mph61%29.89 "HgN/A
10:00 PM72 °FPassing clouds.1 mph61%29.89 "HgN/A
9:00 PM75 °FPassing clouds.6 mph50%29.86 "HgN/A
8:00 PM79 °FPassing clouds.1 mph42%29.83 "HgN/A
7:00 PM82 °FPassing clouds.6 mph35%29.83 "HgN/A
6:00 PM84 °FPassing clouds.6 mph29%29.83 "HgN/A
5:00 PM84 °FPassing clouds.6 mph23%29.83 "HgN/A
4:00 PM84 °FPassing clouds.8 mph35%29.83 "HgN/A
3:00 PM84 °FPassing clouds.10 mph37%29.86 "HgN/A
Weather by CustomWeather, © 2015

See weather overviewHow to use our weather pages